Location: Praha
(50.0830°N, 14.4670°E)
Time: 03:55:37
(UTC+01:00)

ISS - Pass Details

Date: 22 February 2021
Orbit: 417 x 422 km, 51.6° (Epoch: 03 March)

Event Time Altitude Azimuth Distance (km) Brightness Sun altitude
Exits shadow 05:32:58 - 204° (SSW) 1,642 -1.0 -14.6°
Reaches altitude 10° 05:33:25 10° 200° (SSW) 1,490 -1.2 -14.5°
Maximum altitude 05:36:10 24° 144° (SE) 909 -1.7 -14.1°
Drops below altitude 10° 05:38:57 10° 88° (E) 1,498 0.5 -13.6°
Sets 05:41:17 0° 74° (ENE) 2,366 1.7 -13.2°
